Year,Month,Day,Hour,Minute,Value (Times are PST for temperature in C)
2018,03,30,00,00,6.70
2018,03,30,00,01,6.70
2018,03,30,00,02,6.70
2018,03,30,00,03,6.70
2018,03,30,00,04,6.60
2018,03,30,00,05,6.60
2018,03,30,00,06,6.60
2018,03,30,00,07,6.60
2018,03,30,00,08,6.60
2018,03,30,00,09,6.60
2018,03,30,00,10,6.60
2018,03,30,00,11,6.60
2018,03,30,00,12,6.60
2018,03,30,00,13,6.60
2018,03,30,00,14,6.60
2018,03,30,00,15,6.60
2018,03,30,00,16,6.60
2018,03,30,00,17,6.60
2018,03,30,00,18,6.60
2018,03,30,00,19,6.50
2018,03,30,00,20,6.50
2018,03,30,00,21,6.50
2018,03,30,00,22,6.50
2018,03,30,00,23,6.50
2018,03,30,00,24,6.50
2018,03,30,00,25,6.50
2018,03,30,00,26,6.40
2018,03,30,00,27,6.40
2018,03,30,00,28,6.40
2018,03,30,00,29,6.40
2018,03,30,00,30,6.40
2018,03,30,00,31,6.40
2018,03,30,00,32,6.40
2018,03,30,00,33,6.40
2018,03,30,00,34,6.40
2018,03,30,00,35,6.40
2018,03,30,00,36,6.40
2018,03,30,00,37,6.30
2018,03,30,00,38,6.30
2018,03,30,00,39,6.30
2018,03,30,00,40,6.30
2018,03,30,00,41,6.30
2018,03,30,00,42,6.30
2018,03,30,00,43,6.30
2018,03,30,00,44,6.30
2018,03,30,00,45,6.30
2018,03,30,00,46,6.30
2018,03,30,00,47,6.30
2018,03,30,00,48,6.30
2018,03,30,00,49,6.30
2018,03,30,00,50,6.30
2018,03,30,00,51,6.30
2018,03,30,00,52,6.20
2018,03,30,00,53,6.20
2018,03,30,00,54,6.20
2018,03,30,00,55,6.20
2018,03,30,00,56,6.20
2018,03,30,00,57,6.20
2018,03,30,00,58,6.20
2018,03,30,00,59,6.20
2018,03,30,01,00,6.20
2018,03,30,01,01,6.20
2018,03,30,01,02,6.10
2018,03,30,01,03,6.10
2018,03,30,01,04,6.10
2018,03,30,01,05,6.10
2018,03,30,01,06,6.00
2018,03,30,01,07,6.00
2018,03,30,01,08,6.00
2018,03,30,01,09,5.90
2018,03,30,01,10,5.90
2018,03,30,01,11,5.90
2018,03,30,01,12,5.90
2018,03,30,01,13,5.90
2018,03,30,01,14,5.80
2018,03,30,01,15,5.80
2018,03,30,01,16,5.80
2018,03,30,01,17,5.80
2018,03,30,01,18,5.80
2018,03,30,01,19,5.80
2018,03,30,01,20,5.70
2018,03,30,01,21,5.70
2018,03,30,01,22,5.70
2018,03,30,01,23,5.70
2018,03,30,01,24,5.70
2018,03,30,01,25,5.70
2018,03,30,01,26,5.70
2018,03,30,01,27,5.70
2018,03,30,01,28,5.70
2018,03,30,01,29,5.70
2018,03,30,01,30,5.70
2018,03,30,01,31,5.70
2018,03,30,01,32,5.60
2018,03,30,01,33,5.60
2018,03,30,01,34,5.50
2018,03,30,01,35,5.50
2018,03,30,01,36,5.50
2018,03,30,01,37,5.40
2018,03,30,01,38,5.40
2018,03,30,01,39,5.40
2018,03,30,01,40,5.40
2018,03,30,01,41,5.40
2018,03,30,01,42,5.40
2018,03,30,01,43,5.40
2018,03,30,01,44,5.40
2018,03,30,01,45,5.40
2018,03,30,01,46,5.40
2018,03,30,01,47,5.40
2018,03,30,01,48,5.40
2018,03,30,01,49,5.40
2018,03,30,01,50,5.40
2018,03,30,01,51,5.40
2018,03,30,01,52,5.40
2018,03,30,01,53,5.40
2018,03,30,01,54,5.40
2018,03,30,01,55,5.40
2018,03,30,01,56,5.40
2018,03,30,01,57,5.40
2018,03,30,01,58,5.40
2018,03,30,01,59,5.40
2018,03,30,02,00,5.40
2018,03,30,02,01,5.40
2018,03,30,02,02,5.40
2018,03,30,02,03,5.40
2018,03,30,02,04,5.50
2018,03,30,02,05,5.60
2018,03,30,02,06,5.60
2018,03,30,02,07,5.70
2018,03,30,02,08,5.70
2018,03,30,02,09,5.70
2018,03,30,02,10,5.70
2018,03,30,02,11,5.80
2018,03,30,02,12,5.70
2018,03,30,02,13,5.70
2018,03,30,02,14,5.70
2018,03,30,02,15,5.70
2018,03,30,02,16,5.60
2018,03,30,02,17,5.60
2018,03,30,02,18,5.60
2018,03,30,02,19,5.60
2018,03,30,02,20,5.60
2018,03,30,02,21,5.60
2018,03,30,02,22,5.60
2018,03,30,02,23,5.60
2018,03,30,02,24,5.60
2018,03,30,02,25,5.60
2018,03,30,02,26,5.60
2018,03,30,02,27,5.60
2018,03,30,02,28,5.60
2018,03,30,02,29,5.60
2018,03,30,02,30,5.60
2018,03,30,02,31,5.60
2018,03,30,02,32,5.60
2018,03,30,02,33,5.60
2018,03,30,02,34,5.60
2018,03,30,02,35,5.60
2018,03,30,02,36,5.60
2018,03,30,02,37,5.60
2018,03,30,02,38,5.60
2018,03,30,02,39,5.60
2018,03,30,02,40,5.60
2018,03,30,02,41,5.60
2018,03,30,02,42,5.60
2018,03,30,02,43,5.70
2018,03,30,02,44,5.70
2018,03,30,02,45,5.70
2018,03,30,02,46,5.70
2018,03,30,02,47,5.70
2018,03,30,02,48,5.70
2018,03,30,02,49,5.70
2018,03,30,02,50,5.70
2018,03,30,02,51,5.70
2018,03,30,02,52,5.70
2018,03,30,02,53,5.70
2018,03,30,02,54,5.70
2018,03,30,02,55,5.70
2018,03,30,02,56,5.70
2018,03,30,02,57,5.70
2018,03,30,02,58,5.70
2018,03,30,02,59,5.70
2018,03,30,03,00,5.70
2018,03,30,03,01,5.70
2018,03,30,03,02,5.70
2018,03,30,03,03,5.70
2018,03,30,03,04,5.70
2018,03,30,03,05,5.70
2018,03,30,03,06,5.70
2018,03,30,03,07,5.70
2018,03,30,03,08,5.80
2018,03,30,03,09,5.80
2018,03,30,03,10,5.80
2018,03,30,03,11,5.80
2018,03,30,03,12,5.80
2018,03,30,03,13,5.80
2018,03,30,03,14,5.80
2018,03,30,03,15,5.80
2018,03,30,03,16,5.80
2018,03,30,03,17,5.80
2018,03,30,03,18,5.80
2018,03,30,03,19,5.80
2018,03,30,03,20,5.80
2018,03,30,03,21,5.80
2018,03,30,03,22,5.80
2018,03,30,03,23,5.80
2018,03,30,03,24,5.80
2018,03,30,03,25,5.80
2018,03,30,03,26,5.80
2018,03,30,03,27,5.80
2018,03,30,03,28,5.80
2018,03,30,03,29,5.80
2018,03,30,03,30,5.80
2018,03,30,03,31,5.80
2018,03,30,03,32,5.80
2018,03,30,03,33,5.80
2018,03,30,03,34,5.80
2018,03,30,03,35,5.80
2018,03,30,03,36,5.80
2018,03,30,03,37,5.80
2018,03,30,03,38,5.80
2018,03,30,03,39,5.80
2018,03,30,03,40,5.80
2018,03,30,03,41,5.80
2018,03,30,03,42,5.80
2018,03,30,03,43,5.80
2018,03,30,03,44,5.80
2018,03,30,03,45,5.80
2018,03,30,03,46,5.80
2018,03,30,03,47,5.80
2018,03,30,03,48,5.90
2018,03,30,03,49,5.90
2018,03,30,03,50,5.90
2018,03,30,03,51,5.90
2018,03,30,03,52,5.90
2018,03,30,03,53,5.90
2018,03,30,03,54,5.90
2018,03,30,03,55,5.90
2018,03,30,03,56,5.90
2018,03,30,03,57,5.90
2018,03,30,03,58,5.90
2018,03,30,03,59,5.90
2018,03,30,04,00,5.90
2018,03,30,04,01,5.90
2018,03,30,04,02,5.90
2018,03,30,04,03,5.90
2018,03,30,04,04,5.80
2018,03,30,04,05,5.80
2018,03,30,04,06,5.80
2018,03,30,04,07,5.80
2018,03,30,04,08,5.80
2018,03,30,04,09,5.80
2018,03,30,04,10,5.80
2018,03,30,04,11,5.80
2018,03,30,04,12,5.80
2018,03,30,04,13,5.80
2018,03,30,04,14,5.80
2018,03,30,04,15,5.80
2018,03,30,04,16,5.80
2018,03,30,04,17,5.80
2018,03,30,04,18,5.80
2018,03,30,04,19,5.80
2018,03,30,04,20,5.80
2018,03,30,04,21,5.80
2018,03,30,04,22,5.80
2018,03,30,04,23,5.80
2018,03,30,04,24,5.80
2018,03,30,04,25,5.80
2018,03,30,04,26,5.70
2018,03,30,04,27,5.70
2018,03,30,04,28,5.70
2018,03,30,04,29,5.70
2018,03,30,04,30,5.70
2018,03,30,04,31,5.70
2018,03,30,04,32,5.60
2018,03,30,04,33,5.60
2018,03,30,04,34,5.60
2018,03,30,04,35,5.60
2018,03,30,04,36,5.60
2018,03,30,04,37,5.60
2018,03,30,04,38,5.60
2018,03,30,04,39,5.60
2018,03,30,04,40,5.60
2018,03,30,04,41,5.60
2018,03,30,04,42,5.60
2018,03,30,04,43,5.60
2018,03,30,04,44,5.60
2018,03,30,04,45,5.60
2018,03,30,04,46,5.60
2018,03,30,04,47,5.60
2018,03,30,04,48,5.60
2018,03,30,04,49,5.60
2018,03,30,04,50,5.60
2018,03,30,04,51,5.60
2018,03,30,04,52,5.60
2018,03,30,04,53,5.60
2018,03,30,04,54,5.60
2018,03,30,04,55,5.60
2018,03,30,04,56,5.60
2018,03,30,04,57,5.60
2018,03,30,04,58,5.60
2018,03,30,04,59,5.60
2018,03,30,05,00,5.60
2018,03,30,05,01,5.60
2018,03,30,05,02,5.60
2018,03,30,05,03,5.60
2018,03,30,05,04,5.60
2018,03,30,05,05,5.50
2018,03,30,05,06,5.50
2018,03,30,05,07,5.50
2018,03,30,05,08,5.40
2018,03,30,05,09,5.40
2018,03,30,05,10,5.30
2018,03,30,05,11,5.30
2018,03,30,05,12,5.30
2018,03,30,05,13,5.30
2018,03,30,05,14,5.40
2018,03,30,05,15,5.40
2018,03,30,05,16,5.40
2018,03,30,05,17,5.40
2018,03,30,05,18,5.40
2018,03,30,05,19,5.40
2018,03,30,05,20,5.40
2018,03,30,05,21,5.40
2018,03,30,05,22,5.40
2018,03,30,05,23,5.40
2018,03,30,05,24,5.40
2018,03,30,05,25,5.40
2018,03,30,05,26,5.40
2018,03,30,05,27,5.40
2018,03,30,05,28,5.40
2018,03,30,05,29,5.40
2018,03,30,05,30,5.40
2018,03,30,05,31,5.40
2018,03,30,05,32,5.40
2018,03,30,05,33,5.40
2018,03,30,05,34,5.40
2018,03,30,05,35,5.40
2018,03,30,05,36,5.30
2018,03,30,05,37,5.30
2018,03,30,05,38,5.30
2018,03,30,05,39,5.30
2018,03,30,05,40,5.30
2018,03,30,05,41,5.40
2018,03,30,05,42,5.30
2018,03,30,05,43,5.30
2018,03,30,05,44,5.30
2018,03,30,05,45,5.30
2018,03,30,05,46,5.30
2018,03,30,05,47,5.30
2018,03,30,05,48,5.30
2018,03,30,05,49,5.30
2018,03,30,05,50,5.30
2018,03,30,05,51,5.30
2018,03,30,05,52,5.30
2018,03,30,05,53,5.20
2018,03,30,05,54,5.20
2018,03,30,05,55,5.20
2018,03,30,05,56,5.20
2018,03,30,05,57,5.20
2018,03,30,05,58,5.20
2018,03,30,05,59,5.20
2018,03,30,06,00,5.10
2018,03,30,06,01,5.10
2018,03,30,06,02,5.10
2018,03,30,06,03,5.10
2018,03,30,06,04,5.10
2018,03,30,06,05,5.00
2018,03,30,06,06,5.00
2018,03,30,06,07,5.00
2018,03,30,06,08,5.00
2018,03,30,06,09,5.00
2018,03,30,06,10,4.90
2018,03,30,06,11,4.90
2018,03,30,06,12,4.90
2018,03,30,06,13,4.90
2018,03,30,06,14,4.90
2018,03,30,06,15,4.90
2018,03,30,06,16,4.90
2018,03,30,06,17,4.90
2018,03,30,06,18,4.90
2018,03,30,06,19,4.90
2018,03,30,06,20,4.90
2018,03,30,06,21,4.90
2018,03,30,06,22,5.00
2018,03,30,06,23,5.00
2018,03,30,06,24,5.00
2018,03,30,06,25,4.90
2018,03,30,06,26,4.90
2018,03,30,06,27,4.90
2018,03,30,06,28,4.90
2018,03,30,06,29,4.90
2018,03,30,06,30,4.80
2018,03,30,06,31,4.80
2018,03,30,06,32,4.80
2018,03,30,06,33,4.80
2018,03,30,06,34,4.80
2018,03,30,06,35,4.80
2018,03,30,06,36,4.80
2018,03,30,06,37,4.80
2018,03,30,06,38,4.80
2018,03,30,06,39,4.80
2018,03,30,06,40,4.80
2018,03,30,06,41,4.80
2018,03,30,06,42,4.80
2018,03,30,06,43,4.80
2018,03,30,06,44,4.80
2018,03,30,06,45,4.80
2018,03,30,06,46,4.70
2018,03,30,06,47,4.70
2018,03,30,06,48,4.80
2018,03,30,06,49,4.80
2018,03,30,06,50,4.80
2018,03,30,06,51,4.80
2018,03,30,06,52,4.80
2018,03,30,06,53,4.80
2018,03,30,06,54,4.90
2018,03,30,06,55,4.90
2018,03,30,06,56,4.90
2018,03,30,06,57,4.90
2018,03,30,06,58,4.90
2018,03,30,06,59,4.90
2018,03,30,07,00,4.90
2018,03,30,07,01,4.90
2018,03,30,07,02,4.90
2018,03,30,07,03,4.90
2018,03,30,07,04,4.90
2018,03,30,07,05,4.90
2018,03,30,07,06,4.90
2018,03,30,07,07,4.90
2018,03,30,07,08,4.90
2018,03,30,07,09,5.00
2018,03,30,07,10,5.00
2018,03,30,07,11,5.00
2018,03,30,07,12,5.10
2018,03,30,07,13,5.10
2018,03,30,07,14,5.10
2018,03,30,07,15,5.10
2018,03,30,07,16,5.20
2018,03,30,07,17,5.20
2018,03,30,07,18,5.20
2018,03,30,07,19,5.20
2018,03,30,07,20,5.30
2018,03,30,07,21,5.30
2018,03,30,07,22,5.30
2018,03,30,07,23,5.30
2018,03,30,07,24,5.30
2018,03,30,07,25,5.30
2018,03,30,07,26,5.30
2018,03,30,07,27,5.30
2018,03,30,07,28,5.30
2018,03,30,07,29,5.30
2018,03,30,07,30,5.30
2018,03,30,07,31,5.30
2018,03,30,07,32,5.30
2018,03,30,07,33,5.30
2018,03,30,07,34,5.40
2018,03,30,07,35,5.40
2018,03,30,07,36,5.30
2018,03,30,07,37,5.30
2018,03,30,07,38,5.30
2018,03,30,07,39,5.30
2018,03,30,07,40,5.30
2018,03,30,07,41,5.30
2018,03,30,07,42,5.30
2018,03,30,07,43,5.30
2018,03,30,07,44,5.30
2018,03,30,07,45,5.30
2018,03,30,07,46,5.30
2018,03,30,07,47,5.30
2018,03,30,07,48,5.30
2018,03,30,07,49,5.30
2018,03,30,07,50,5.30
2018,03,30,07,51,5.30
2018,03,30,07,52,5.30
2018,03,30,07,53,5.30
2018,03,30,07,54,5.30
2018,03,30,07,55,5.30
2018,03,30,07,56,5.30
2018,03,30,07,57,5.30
2018,03,30,07,58,5.30
2018,03,30,07,59,5.30
2018,03,30,08,00,5.30
2018,03,30,08,01,5.30
2018,03,30,08,02,5.30
2018,03,30,08,03,5.30
2018,03,30,08,04,5.40
2018,03,30,08,05,5.40
2018,03,30,08,06,5.40
2018,03,30,08,07,5.40
2018,03,30,08,08,5.40
2018,03,30,08,09,5.40
2018,03,30,08,10,5.50
2018,03,30,08,11,5.60
2018,03,30,08,12,5.60
2018,03,30,08,13,5.60
2018,03,30,08,14,5.70
2018,03,30,08,15,5.70
2018,03,30,08,16,5.80
2018,03,30,08,17,5.80
2018,03,30,08,18,5.90
2018,03,30,08,19,6.00
2018,03,30,08,20,6.10
2018,03,30,08,21,6.10
2018,03,30,08,22,6.20
2018,03,30,08,23,6.20
2018,03,30,08,24,6.30
2018,03,30,08,25,6.30
2018,03,30,08,26,6.40
2018,03,30,08,27,6.40
2018,03,30,08,28,6.40
2018,03,30,08,29,6.50
2018,03,30,08,30,6.50
2018,03,30,08,31,6.50
2018,03,30,08,32,6.60
2018,03,30,08,33,6.60
2018,03,30,08,34,6.60
2018,03,30,08,35,6.60
2018,03,30,08,36,6.60
2018,03,30,08,37,6.60
2018,03,30,08,38,6.60
2018,03,30,08,39,6.60
2018,03,30,08,40,6.70
2018,03,30,08,41,6.70
2018,03,30,08,42,6.70
2018,03,30,08,43,6.70
2018,03,30,08,44,6.70
2018,03,30,08,45,6.70
2018,03,30,08,46,6.70
2018,03,30,08,47,6.70
2018,03,30,08,48,6.70
2018,03,30,08,49,6.70
2018,03,30,08,50,6.80
2018,03,30,08,51,6.80
2018,03,30,08,52,6.90
2018,03,30,08,53,6.90
2018,03,30,08,54,7.00
2018,03,30,08,55,7.10
2018,03,30,08,56,7.10
2018,03,30,08,57,7.20
2018,03,30,08,58,7.20
2018,03,30,08,59,7.30
2018,03,30,09,00,7.30
2018,03,30,09,01,7.40
2018,03,30,09,02,7.40
2018,03,30,09,03,7.40
2018,03,30,09,04,7.50
2018,03,30,09,05,7.50
2018,03,30,09,06,7.60
2018,03,30,09,07,7.60
2018,03,30,09,08,7.60
2018,03,30,09,09,7.70
2018,03,30,09,10,7.70
2018,03,30,09,11,7.80
2018,03,30,09,12,7.80
2018,03,30,09,13,7.80
2018,03,30,09,14,7.80
2018,03,30,09,15,7.90
2018,03,30,09,16,7.90
2018,03,30,09,17,8.00
2018,03,30,09,18,8.00
2018,03,30,09,19,8.10
2018,03,30,09,20,8.10
2018,03,30,09,21,8.10
2018,03,30,09,22,8.10
2018,03,30,09,23,8.20
2018,03,30,09,24,8.20
2018,03,30,09,25,8.20
2018,03,30,09,26,8.20
2018,03,30,09,27,8.20
2018,03,30,09,28,8.20
2018,03,30,09,29,8.20
2018,03,30,09,30,8.20
2018,03,30,09,31,8.20
2018,03,30,09,32,8.20
2018,03,30,09,33,8.30
2018,03,30,09,34,8.30
2018,03,30,09,35,8.30
2018,03,30,09,36,8.40
2018,03,30,09,37,8.40
2018,03,30,09,38,8.50
2018,03,30,09,39,8.50
2018,03,30,09,40,8.50
2018,03,30,09,41,8.50
2018,03,30,09,42,8.50
2018,03,30,09,43,8.50
2018,03,30,09,44,8.50
2018,03,30,09,45,8.60
2018,03,30,09,46,8.60
2018,03,30,09,47,8.60
2018,03,30,09,48,8.70
2018,03,30,09,49,8.70
2018,03,30,09,50,8.80
2018,03,30,09,51,8.80
2018,03,30,09,52,8.80
2018,03,30,09,53,8.80
2018,03,30,09,54,8.80
2018,03,30,09,55,8.90
2018,03,30,09,56,8.90
2018,03,30,09,57,8.90
2018,03,30,09,58,8.90
2018,03,30,09,59,8.90
2018,03,30,10,00,8.90
2018,03,30,10,01,8.90
2018,03,30,10,02,8.90
2018,03,30,10,03,8.80
2018,03,30,10,04,8.80
2018,03,30,10,05,8.80
2018,03,30,10,06,8.80
2018,03,30,10,07,8.80
2018,03,30,10,08,8.80
2018,03,30,10,09,8.80
2018,03,30,10,10,8.80
2018,03,30,10,11,8.80
2018,03,30,10,12,8.80
2018,03,30,10,13,8.80
2018,03,30,10,14,8.80
2018,03,30,10,15,8.80
2018,03,30,10,16,8.80
2018,03,30,10,17,8.80
2018,03,30,10,18,8.70
2018,03,30,10,19,8.70
2018,03,30,10,20,8.60
2018,03,30,10,21,8.60
2018,03,30,10,22,8.60
2018,03,30,10,23,8.70
2018,03,30,10,24,8.70
2018,03,30,10,25,8.70
2018,03,30,10,26,8.80
2018,03,30,10,27,8.80
2018,03,30,10,28,8.80
2018,03,30,10,29,8.80
2018,03,30,10,30,8.90
2018,03,30,10,31,8.90
2018,03,30,10,32,8.90
2018,03,30,10,33,9.00
2018,03,30,10,34,9.00
2018,03,30,10,35,9.00
2018,03,30,10,36,9.00
2018,03,30,10,37,9.00
2018,03,30,10,38,9.00
2018,03,30,10,39,9.00
2018,03,30,10,40,9.00
2018,03,30,10,41,9.10
2018,03,30,10,42,9.10
2018,03,30,10,43,9.20
2018,03,30,10,44,9.20
2018,03,30,10,45,9.20
2018,03,30,10,46,9.20
2018,03,30,10,47,9.30
2018,03,30,10,48,9.30
2018,03,30,10,49,9.40
2018,03,30,10,50,9.40
2018,03,30,10,51,9.40
2018,03,30,10,52,9.40
2018,03,30,10,53,9.40
2018,03,30,10,54,9.40
2018,03,30,10,55,9.40
2018,03,30,10,56,9.40
2018,03,30,10,57,9.40
2018,03,30,10,58,9.50
2018,03,30,10,59,9.50
2018,03,30,11,00,9.60
2018,03,30,11,01,9.60
2018,03,30,11,02,9.70
2018,03,30,11,03,9.70
2018,03,30,11,04,9.70
2018,03,30,11,05,9.70
2018,03,30,11,06,9.80
2018,03,30,11,07,9.80
2018,03,30,11,08,9.80
2018,03,30,11,09,9.70
2018,03,30,11,10,9.70
2018,03,30,11,11,9.70
2018,03,30,11,12,9.60
2018,03,30,11,13,9.60
2018,03,30,11,14,9.60
2018,03,30,11,15,9.60
2018,03,30,11,16,9.60
2018,03,30,11,17,9.60
2018,03,30,11,18,9.60
2018,03,30,11,19,9.60
2018,03,30,11,20,9.60
2018,03,30,11,21,9.60
2018,03,30,11,22,9.60
2018,03,30,11,23,9.60
2018,03,30,11,24,9.60
2018,03,30,11,25,9.60
2018,03,30,11,26,9.60
2018,03,30,11,27,9.60
2018,03,30,11,28,9.60
2018,03,30,11,29,9.60
2018,03,30,11,30,9.60
2018,03,30,11,31,9.60
2018,03,30,11,32,9.60
2018,03,30,11,33,9.70
2018,03,30,11,34,9.70
2018,03,30,11,35,9.70
2018,03,30,11,36,9.70
2018,03,30,11,37,9.70
2018,03,30,11,38,9.80
2018,03,30,11,39,9.80
2018,03,30,11,40,9.80
2018,03,30,11,41,9.90
2018,03,30,11,42,10.00
2018,03,30,11,43,10.00
2018,03,30,11,44,9.90
2018,03,30,11,45,9.90
2018,03,30,11,46,9.90
2018,03,30,11,47,9.90
2018,03,30,11,48,9.80
2018,03,30,11,49,9.80
2018,03,30,11,50,9.90
2018,03,30,11,51,9.90
2018,03,30,11,52,9.90
2018,03,30,11,53,9.90
2018,03,30,11,54,9.90
2018,03,30,11,55,9.80
2018,03,30,11,56,9.80
2018,03,30,11,57,9.70
2018,03,30,11,58,9.70
2018,03,30,11,59,9.70
2018,03,30,12,00,9.70
2018,03,30,12,01,9.70
2018,03,30,12,02,9.70
2018,03,30,12,03,9.60
2018,03,30,12,04,9.60
2018,03,30,12,05,9.60
2018,03,30,12,06,9.50
2018,03,30,12,07,9.50
2018,03,30,12,08,9.40
2018,03,30,12,09,9.40
2018,03,30,12,10,9.40
2018,03,30,12,11,9.40
2018,03,30,12,12,9.40
2018,03,30,12,13,9.30
2018,03,30,12,14,9.30
2018,03,30,12,15,9.30
2018,03,30,12,16,9.30
2018,03,30,12,17,9.40
2018,03,30,12,18,9.40
2018,03,30,12,19,9.50
2018,03,30,12,20,9.50
2018,03,30,12,21,9.60
2018,03,30,12,22,9.70
2018,03,30,12,23,9.70
2018,03,30,12,24,9.70
2018,03,30,12,25,9.70
2018,03,30,12,26,9.70
2018,03,30,12,27,9.70
2018,03,30,12,28,9.70
2018,03,30,12,29,9.60
2018,03,30,12,30,9.70
2018,03,30,12,31,9.60
2018,03,30,12,32,9.60
2018,03,30,12,33,9.60
2018,03,30,12,34,9.60
2018,03,30,12,35,9.70
2018,03,30,12,36,9.70
2018,03,30,12,37,9.80
2018,03,30,12,38,9.80
2018,03,30,12,39,9.80
2018,03,30,12,40,9.80
2018,03,30,12,41,9.80
2018,03,30,12,42,9.80
2018,03,30,12,43,9.70
2018,03,30,12,44,9.70
2018,03,30,12,45,9.70
2018,03,30,12,46,9.80
2018,03,30,12,47,9.80
2018,03,30,12,48,9.80
2018,03,30,12,49,9.80
2018,03,30,12,50,9.70
2018,03,30,12,51,9.70
2018,03,30,12,52,9.80
2018,03,30,12,53,9.80
2018,03,30,12,54,9.80
2018,03,30,12,55,9.80
2018,03,30,12,56,9.80
2018,03,30,12,57,9.90
2018,03,30,12,58,9.90
2018,03,30,12,59,10.00
2018,03,30,13,00,10.10
2018,03,30,13,01,10.10
2018,03,30,13,02,10.10
2018,03,30,13,03,10.00
2018,03,30,13,04,9.90
2018,03,30,13,05,9.90
2018,03,30,13,06,9.90
2018,03,30,13,07,9.90
2018,03,30,13,08,9.80
2018,03,30,13,09,9.70
2018,03,30,13,10,9.70
2018,03,30,13,11,9.70
2018,03,30,13,12,9.70
2018,03,30,13,13,9.70
2018,03,30,13,14,9.70
2018,03,30,13,15,9.60
2018,03,30,13,16,9.60
2018,03,30,13,17,9.60
2018,03,30,13,18,9.60
2018,03,30,13,19,9.60
2018,03,30,13,20,9.60
2018,03,30,13,21,9.70
2018,03,30,13,22,9.70
2018,03,30,13,23,9.70
2018,03,30,13,24,9.80
2018,03,30,13,25,9.80
2018,03,30,13,26,9.80
2018,03,30,13,27,9.90
2018,03,30,13,28,9.90
2018,03,30,13,29,9.90
2018,03,30,13,30,9.90
2018,03,30,13,31,9.80
2018,03,30,13,32,9.80
2018,03,30,13,33,9.80
2018,03,30,13,34,9.80
2018,03,30,13,35,9.80
2018,03,30,13,36,9.80
2018,03,30,13,37,9.80
2018,03,30,13,38,9.90
2018,03,30,13,39,9.90
2018,03,30,13,40,10.00
2018,03,30,13,41,10.10
2018,03,30,13,42,10.10
2018,03,30,13,43,10.20
2018,03,30,13,44,10.30
2018,03,30,13,45,10.30
2018,03,30,13,46,10.30
2018,03,30,13,47,10.40
2018,03,30,13,48,10.40
2018,03,30,13,49,10.40
2018,03,30,13,50,10.50
2018,03,30,13,51,10.60
2018,03,30,13,52,10.60
2018,03,30,13,53,10.70
2018,03,30,13,54,10.60
2018,03,30,13,55,10.70
2018,03,30,13,56,10.70
2018,03,30,13,57,10.60
2018,03,30,13,58,10.60
2018,03,30,13,59,10.70
2018,03,30,14,00,10.70
2018,03,30,14,01,10.70
2018,03,30,14,02,10.80
2018,03,30,14,03,10.80
2018,03,30,14,04,10.80
2018,03,30,14,05,10.80
2018,03,30,14,06,10.90
2018,03,30,14,07,10.90
2018,03,30,14,08,10.80
2018,03,30,14,09,10.70
2018,03,30,14,10,10.70
2018,03,30,14,11,10.70
2018,03,30,14,12,10.70
2018,03,30,14,13,10.70
2018,03,30,14,14,10.70
2018,03,30,14,15,10.70
2018,03,30,14,16,10.70
2018,03,30,14,17,10.60
2018,03,30,14,18,10.60
2018,03,30,14,19,10.50
2018,03,30,14,20,10.50
2018,03,30,14,21,10.50
2018,03,30,14,22,10.50
2018,03,30,14,23,10.50
2018,03,30,14,24,10.40
2018,03,30,14,25,10.40
2018,03,30,14,26,10.50
2018,03,30,14,27,10.50
2018,03,30,14,28,10.60
2018,03,30,14,29,10.60
2018,03,30,14,30,10.60
2018,03,30,14,31,10.60
2018,03,30,14,32,10.70
2018,03,30,14,33,10.70
2018,03,30,14,34,10.80
2018,03,30,14,35,10.80
2018,03,30,14,36,10.90
2018,03,30,14,37,10.90
2018,03,30,14,38,11.00
2018,03,30,14,39,11.10
2018,03,30,14,40,11.00
2018,03,30,14,41,11.00
2018,03,30,14,42,11.00
2018,03,30,14,43,11.00
2018,03,30,14,44,11.00
2018,03,30,14,45,11.00
2018,03,30,14,46,11.00
2018,03,30,14,47,11.00
2018,03,30,14,48,11.00
2018,03,30,14,49,11.00
2018,03,30,14,50,11.00
2018,03,30,14,51,11.00
2018,03,30,14,52,11.00
2018,03,30,14,53,11.00
2018,03,30,14,54,11.00
2018,03,30,14,55,11.10
2018,03,30,14,56,11.10
2018,03,30,14,57,11.00
2018,03,30,14,58,11.00
2018,03,30,14,59,10.90
2018,03,30,15,00,10.90
2018,03,30,15,01,10.90
2018,03,30,15,02,10.90
2018,03,30,15,03,10.90
2018,03,30,15,04,10.90
2018,03,30,15,05,11.00
2018,03,30,15,06,11.00
2018,03,30,15,07,11.10
2018,03,30,15,08,11.20
2018,03,30,15,09,11.20
2018,03,30,15,10,11.30
2018,03,30,15,11,11.30
2018,03,30,15,12,11.30
2018,03,30,15,13,11.30
2018,03,30,15,14,11.30
2018,03,30,15,15,11.40
2018,03,30,15,16,11.40
2018,03,30,15,17,11.40
2018,03,30,15,18,11.40
2018,03,30,15,19,11.40
2018,03,30,15,20,11.40
2018,03,30,15,21,11.40
2018,03,30,15,22,11.50
2018,03,30,15,23,11.50
2018,03,30,15,24,11.60
2018,03,30,15,25,11.50
2018,03,30,15,26,11.50
2018,03,30,15,27,11.50
2018,03,30,15,28,11.40
2018,03,30,15,29,11.40
2018,03,30,15,30,11.40
2018,03,30,15,31,11.40
2018,03,30,15,32,11.40
2018,03,30,15,33,11.30
2018,03,30,15,34,11.30
2018,03,30,15,35,11.30
2018,03,30,15,36,11.30
2018,03,30,15,37,11.30
2018,03,30,15,38,11.30
2018,03,30,15,39,11.30
2018,03,30,15,40,11.20
2018,03,30,15,41,11.20
2018,03,30,15,42,11.20
2018,03,30,15,43,11.20
2018,03,30,15,44,11.30
2018,03,30,15,45,11.30
2018,03,30,15,46,11.30
2018,03,30,15,47,11.30
2018,03,30,15,48,11.30
2018,03,30,15,49,11.40
2018,03,30,15,50,11.40
2018,03,30,15,51,11.40
2018,03,30,15,52,11.40
2018,03,30,15,53,11.40
2018,03,30,15,54,11.40
2018,03,30,15,55,11.40
2018,03,30,15,56,11.40
2018,03,30,15,57,11.30
2018,03,30,15,58,11.30
2018,03,30,15,59,11.30
2018,03,30,16,00,11.20
2018,03,30,16,01,11.20
2018,03,30,16,02,11.20
2018,03,30,16,03,11.20
2018,03,30,16,04,11.30
2018,03,30,16,05,11.30
2018,03,30,16,06,11.30
2018,03,30,16,07,11.40
2018,03,30,16,08,11.40
2018,03,30,16,09,11.50
2018,03,30,16,10,11.50
2018,03,30,16,11,11.60
2018,03,30,16,12,11.60
2018,03,30,16,13,11.60
2018,03,30,16,14,11.70
2018,03,30,16,15,11.70
2018,03,30,16,16,11.60
2018,03,30,16,17,11.60
2018,03,30,16,18,11.60
2018,03,30,16,19,11.60
2018,03,30,16,20,11.70
2018,03,30,16,21,11.70
2018,03,30,16,22,11.70
2018,03,30,16,23,11.70
2018,03,30,16,24,11.60
2018,03,30,16,25,11.60
2018,03,30,16,26,11.50
2018,03,30,16,27,11.50
2018,03,30,16,28,11.40
2018,03,30,16,29,11.40
2018,03,30,16,30,11.40
2018,03,30,16,31,11.30
2018,03,30,16,32,11.30
2018,03,30,16,33,11.30
2018,03,30,16,34,11.30
2018,03,30,16,35,11.40
2018,03,30,16,36,11.40
2018,03,30,16,37,11.40
2018,03,30,16,38,11.50
2018,03,30,16,39,11.50
2018,03,30,16,40,11.60
2018,03,30,16,41,11.50
2018,03,30,16,42,11.50
2018,03,30,16,43,11.50
2018,03,30,16,44,11.40
2018,03,30,16,45,11.40
2018,03,30,16,46,11.30
2018,03,30,16,47,11.30
2018,03,30,16,48,11.20
2018,03,30,16,49,11.20
2018,03,30,16,50,11.20
2018,03,30,16,51,11.20
2018,03,30,16,52,11.20
2018,03,30,16,53,11.20
2018,03,30,16,54,11.20
2018,03,30,16,55,11.20
2018,03,30,16,56,11.20
2018,03,30,16,57,11.20
2018,03,30,16,58,11.20
2018,03,30,16,59,11.30
2018,03,30,17,00,11.30
2018,03,30,17,01,11.30
2018,03,30,17,02,11.30
2018,03,30,17,03,11.30
2018,03,30,17,04,11.30
2018,03,30,17,05,11.30
2018,03,30,17,06,11.20
2018,03,30,17,07,11.20
2018,03,30,17,08,11.20
2018,03,30,17,09,11.30
2018,03,30,17,10,11.30
2018,03,30,17,11,11.30
2018,03,30,17,12,11.30
2018,03,30,17,13,11.30
2018,03,30,17,14,11.30
2018,03,30,17,15,11.30
2018,03,30,17,16,11.30
2018,03,30,17,17,11.30
2018,03,30,17,18,11.30
2018,03,30,17,19,11.30
2018,03,30,17,20,11.30
2018,03,30,17,21,11.40
2018,03,30,17,22,11.40
2018,03,30,17,23,11.40
2018,03,30,17,24,11.50
2018,03,30,17,25,11.50
2018,03,30,17,26,11.50
2018,03,30,17,27,11.60
2018,03,30,17,28,11.60
2018,03,30,17,29,11.60
2018,03,30,17,30,11.60
2018,03,30,17,31,11.60
2018,03,30,17,32,11.50
2018,03,30,17,33,11.50
2018,03,30,17,34,11.40
2018,03,30,17,35,11.30
2018,03,30,17,36,11.30
2018,03,30,17,37,11.30
2018,03,30,17,38,11.30
2018,03,30,17,39,11.30
2018,03,30,17,40,11.40
2018,03,30,17,41,11.40
2018,03,30,17,42,11.40
2018,03,30,17,43,11.40
2018,03,30,17,44,11.40
2018,03,30,17,45,11.40
2018,03,30,17,46,11.40
2018,03,30,17,47,11.40
2018,03,30,17,48,11.30
2018,03,30,17,49,11.30
2018,03,30,17,50,11.30
2018,03,30,17,51,11.30
2018,03,30,17,52,11.30
2018,03,30,17,53,11.30
2018,03,30,17,54,11.30